| time (UTC) | temp F | wind direction | speed MPH | gust MPH | rain 1hr in | rain 24hr in | rain mn in | humidity % | barometer mb |
| 20260510175348 | 51 | 38 | 2.0 | 3.0 | 0.00 | 0.28 | 0.28 | 99 | 1015.2 |
| 20260510174348 | 51 | 47 | 3.0 | 4.0 | 0.00 | 0.28 | 0.28 | 99 | 1015.1 |
| 20260510173346 | 50 | 50 | 1.0 | 2.0 | 0.00 | 0.28 | 0.28 | 99 | 1015.3 |
| 20260510172344 | 50 | 87 | 2.0 | 5.0 | 0.07 | 0.28 | 0.28 | 99 | 1015.1 |
| 20260510171344 | 50 | 29 | 3.0 | 5.0 | 0.09 | 0.26 | 0.26 | 99 | 1015.2 |
| 20260510170343 | 50 | 5 | 5.0 | 5.0 | 0.12 | 0.25 | 0.25 | 99 | 1015.2 |
| 20260510165341 | 50 | 17 | 3.0 | 6.0 | 0.12 | 0.22 | 0.22 | 99 | 1015.0 |
| 20260510164335 | 50 | 5 | 4.0 | 6.0 | 0.47 | 0.20 | 0.20 | 99 | 1014.8 |
| 20260510163331 | 51 | 9 | 4.0 | 5.0 | 0.21 | 0.11 | 0.11 | 99 | 1014.7 |
| 20260510162329 | 51 | 329 | 4.0 | 6.0 | 0.21 | 0.07 | 0.07 | 99 | 1014.9 |
| 20260510161326 | 51 | 4 | 3.0 | 7.0 | 0.14 | 0.04 | 0.04 | 98 | 1014.7 |
| 20260510160326 | 53 | 1 | 8.0 | 17.0 | 0.00 | 0.02 | 0.02 | 94 | 1014.4 |
| 20260510155323 | 57 | 11 | 7.0 | 9.0 | 0.00 | 0.02 | 0.02 | 85 | 1014.1 |
| 20260510154321 | 57 | 186 | 2.0 | 6.0 | 0.00 | 0.02 | 0.02 | 82 | 1013.8 |
| 20260510153318 | 58 | 214 | 5.0 | 9.0 | 0.00 | 0.02 | 0.02 | 83 | 1013.7 |
| 20260510152317 | 58 | 144 | 6.0 | 9.0 | 0.00 | 0.02 | 0.02 | 82 | 1013.7 |
| 20260510151312 | 60 | 197 | 3.0 | 5.0 | 0.00 | 0.02 | 0.02 | 79 | 1013.6 |
| 20260510150309 | 58 | 201 | 6.0 | 10.0 | 0.00 | 0.02 | 0.02 | 83 | 1013.6 |
| 20260510145308 | 58 | 210 | 9.0 | 13.0 | 0.00 | 0.02 | 0.02 | 87 | 1013.6 |
| 20260510144307 | 58 | 195 | 3.0 | 6.0 | 0.00 | 0.02 | 0.02 | 85 | 1013.7 |
| 20260510143303 | 57 | 201 | 4.0 | 6.0 | 0.00 | 0.02 | 0.02 | 89 | 1013.8 |
| 20260510142305 | 56 | 220 | 5.0 | 9.0 | 0.00 | 0.02 | 0.02 | 88 | 1013.8 |
| 20260510141257 | 55 | 24 | 3.0 | 6.0 | 0.00 | 0.02 | 0.02 | 93 | 1013.7 |
| 20260510140256 | 55 | 194 | 4.0 | 4.0 | 0.00 | 0.02 | 0.02 | 91 | 1013.5 |
| 20260510135251 | 54 | 38 | 1.0 | 3.0 | 0.00 | 0.02 | 0.02 | 92 | 1013.3 |
| 20260510134246 | 53 | 210 | 2.0 | 6.0 | 0.00 | 0.02 | 0.02 | 93 | 1013.2 |
| 20260510133244 | 53 | 235 | 1.0 | 5.0 | 0.00 | 0.02 | 0.02 | 94 | 1013.4 |
| 20260510132244 | 53 | 138 | 2.0 | 6.0 | 0.00 | 0.02 | 0.02 | 95 | 1013.3 |
| 20260510131238 | 52 | 227 | 4.0 | 6.0 | 0.00 | 0.02 | 0.02 | 95 | 1013.3 |
| 20260510130237 | 52 | 199 | 2.0 | 3.0 | 0.00 | 0.02 | 0.02 | 95 | 1013.2 |
| 20260510125236 | 52 | 225 | 3.0 | 5.0 | 0.00 | 0.02 | 0.02 | 96 | 1013.2 |
| 20260510124230 | 51 | 230 | 0.0 | 4.0 | 0.00 | 0.02 | 0.02 | 96 | 1013.1 |
| 20260510123227 | 51 | 156 | 1.0 | 4.0 | 0.00 | 0.02 | 0.02 | 96 | 1013.4 |
| 20260510122226 | 51 | 33 | 1.0 | 2.0 | 0.00 | 0.02 | 0.02 | 96 | 1013.3 |
| 20260510121226 | 51 | 92 | 0.0 | 2.0 | 0.00 | 0.02 | 0.02 | 96 | 1013.1 |
| 20260510120225 | 51 | 211 | 4.0 | 5.0 | 0.00 | 0.02 | 0.02 | 95 | 1012.8 |
| 20260510115225 | 51 | 33 | 1.0 | 3.0 | 0.00 | 0.02 | 0.02 | 95 | 1012.5 |
| 20260510114224 | 51 | 190 | 2.0 | 2.0 | 0.00 | 0.02 | 0.02 | 96 | 1012.4 |
| 20260510113222 | 50 | 108 | 1.0 | 2.0 | 0.00 | 0.02 | 0.02 | 97 | 1012.5 |
| 20260510112221 | 50 | 123 | 1.0 | 2.0 | 0.00 | 0.02 | 0.02 | 98 | 1012.3 |
| 20260510111220 | 50 | 196 | 3.0 | 3.0 | 0.00 | 0.02 | 0.02 | 97 | 1011.9 |
| 20260510110218 | 50 | 222 | 2.0 | 5.0 | 0.00 | 0.02 | 0.02 | 96 | 1011.5 |
| 20260510105217 | 50 | 184 | 2.0 | 5.0 | 0.00 | 0.02 | 0.02 | 96 | 1011.6 |
| 20260510104217 | 50 | 177 | 1.0 | 4.0 | 0.00 | 0.02 | 0.02 | 95 | 1011.2 |
| 20260510103217 | 50 | 207 | 3.0 | 6.0 | 0.00 | 0.02 | 0.02 | 94 | 1011.1 |
| 20260510102212 | 50 | 156 | 2.0 | 7.0 | 0.00 | 0.02 | 0.02 | 95 | 1011.0 |
| 20260510101209 | 49 | 216 | 3.0 | 7.0 | 0.00 | 0.02 | 0.02 | 95 | 1010.9 |
| 20260510100208 | 49 | 183 | 4.0 | 5.0 | 0.00 | 0.02 | 0.02 | 96 | 1010.7 |
| 20260510095205 | 49 | 193 | 5.0 | 10.0 | 0.00 | 0.02 | 0.02 | 96 | 1010.7 |
| 20260510094159 | 49 | 190 | 3.0 | 10.0 | 0.00 | 0.02 | 0.02 | 97 | 1010.7 |
| 20260510093158 | 49 | 198 | 5.0 | 6.0 | 0.00 | 0.02 | 0.02 | 96 | 1010.5 |
| 20260510092156 | 49 | 166 | 2.0 | 3.0 | 0.00 | 0.02 | 0.02 | 96 | 1010.5 |
| 20260510091154 | 49 | 235 | 2.0 | 6.0 | 0.00 | 0.02 | 0.02 | 95 | 1010.5 |
| 20260510090154 | 50 | 162 | 2.0 | 7.0 | 0.00 | 0.02 | 0.02 | 95 | 1010.5 |
| 20260510085150 | 50 | 113 | 1.0 | 6.0 | 0.00 | 0.02 | 0.02 | 95 | 1010.5 |
| 20260510084149 | 50 | 278 | 2.0 | 4.0 | 0.00 | 0.02 | 0.02 | 95 | 1010.7 |
| 20260510083148 | 49 | 17 | 2.0 | 3.0 | 0.00 | 0.02 | 0.02 | 96 | 1010.3 |
| 20260510082146 | 49 | 234 | 3.0 | 4.0 | 0.00 | 0.02 | 0.02 | 96 | 1010.1 |
| 20260510081143 | 49 | 72 | 2.0 | 4.0 | 0.00 | 0.02 | 0.02 | 97 | 1010.0 |
| 20260510080139 | 48 | 30 | 2.0 | 2.0 | 0.00 | 0.02 | 0.02 | 97 | 1010.3 |
| 20260510075134 | 48 | 354 | 0.0 | 3.0 | 0.00 | 0.02 | 0.02 | 98 | 1010.0 |
| 20260510074132 | 48 | 330 | 2.0 | 3.0 | 0.00 | 0.02 | 0.02 | 99 | 1010.3 |
| 20260510073131 | 49 | 265 | 0.0 | 3.0 | 0.00 | 0.02 | 0.02 | 97 | 1010.0 |
| 20260510072130 | 49 | 8 | 2.0 | 2.0 | 0.00 | 0.02 | 0.02 | 98 | 1009.9 |
| 20260510071130 | 49 | 10 | 2.0 | 2.0 | 0.00 | 0.02 | 0.02 | 98 | 1009.7 |
| 20260510070124 | 49 | 298 | 0.0 | 4.0 | 0.00 | 0.02 | 0.02 | 96 | 1009.7 |
| 20260510065122 | 49 | 41 | 2.0 | 3.0 | 0.00 | 0.02 | 0.02 | 97 | 1009.8 |
| 20260510064121 | 49 | 2 | 2.0 | 3.0 | 0.00 | 0.02 | 0.02 | 97 | 1010.1 |
| 20260510063120 | 49 | 225 | 1.0 | 3.0 | 0.00 | 0.02 | 0.02 | 97 | 1009.9 |
| 20260510062118 | 49 | 21 | 1.0 | 3.0 | 0.00 | 0.02 | 0.02 | 98 | 1010.3 |
| 20260510061117 | 49 | 47 | 2.0 | 3.0 | 0.00 | 0.02 | 0.02 | 99 | 1010.3 |
| 20260510060116 | 49 | 20 | 0.0 | 3.0 | 0.00 | 0.02 | 0.02 | 99 | 1010.4 |
| 20260510055116 | 49 | 91 | 2.0 | 3.0 | 0.00 | 0.02 | 0.02 | 99 | 1010.6 |
| 20260510054112 | 49 | 54 | 3.0 | 4.0 | 0.00 | 0.02 | 0.02 | 99 | 1010.7 |
| 20260510053109 | 49 | 314 | 0.0 | 3.0 | 0.02 | 0.02 | 0.02 | 99 | 1011.2 |
| 20260510052108 | 49 | 359 | 1.0 | 3.0 | 0.00 | 0.01 | 0.01 | 98 | 1011.4 |
| 20260510051106 | 49 | 4 | 0.0 | 3.0 | 0.00 | 0.01 | 0.01 | 99 | 1011.4 |
| 20260510050106 | 50 | 292 | 2.0 | 3.0 | 0.00 | 0.01 | 0.01 | 99 | 1011.5 |
| 20260510045105 | 50 | 333 | 3.0 | 4.0 | 0.00 | 0.01 | 0.01 | 98 | 1011.4 |
| 20260510044104 | 50 | 4 | 2.0 | 5.0 | 0.07 | 0.01 | 0.01 | 98 | 1011.4 |
| 20260510043102 | 50 | 199 | 2.0 | 7.0 | 0.00 | 0.00 | 0.00 | 98 | 1011.8 |
| 20260510042102 | 50 | 308 | 2.0 | 4.0 | 0.00 | 0.00 | 0.00 | 99 | 1011.6 |
| 20260510041102 | 51 | 305 | 2.0 | 5.0 | 0.00 | 0.00 | 0.00 | 99 | 1010.8 |
| 20260510035057 | 51 | 215 | 8.0 | 9.0 | 0.00 | 0.35 | 0.35 | 99 | 1010.5 |
| 20260510034052 | 51 | 212 | 4.0 | 7.0 | 0.00 | 0.35 | 0.35 | 99 | 1010.3 |
| 20260510033052 | 51 | 298 | 4.0 | 6.0 | 0.00 | 0.35 | 0.35 | 99 | 1010.0 |
| 20260510032050 | 51 | 265 | 2.0 | 5.0 | 0.00 | 0.35 | 0.35 | 99 | 1010.0 |
| 20260510031046 | 51 | 244 | 3.0 | 9.0 | 0.00 | 0.35 | 0.35 | 98 | 1009.8 |
| 20260510030045 | 51 | 314 | 1.0 | 10.0 | 0.00 | 0.35 | 0.35 | 98 | 1009.7 |
| 20260510025045 | 51 | 188 | 2.0 | 8.0 | 0.00 | 0.35 | 0.35 | 98 | 1009.2 |
| 20260510024044 | 50 | 251 | 4.0 | 6.0 | 0.00 | 0.35 | 0.35 | 98 | 1009.5 |
| 20260510023044 | 50 | 238 | 3.0 | 11.0 | 0.00 | 0.35 | 0.35 | 97 | 1009.6 |
| 20260510022043 | 50 | 180 | 1.0 | 4.0 | 0.00 | 0.35 | 0.35 | 97 | 1009.5 |
| 20260510021044 | 50 | 261 | 2.0 | 7.0 | 0.00 | 0.35 | 0.35 | 97 | 1009.5 |
| 20260510020040 | 50 | 233 | 3.0 | 6.0 | 0.00 | 0.35 | 0.35 | 98 | 1009.3 |
| 20260510015037 | 50 | 192 | 3.0 | 5.0 | 0.00 | 0.35 | 0.35 | 98 | 1009.4 |
| 20260510014037 | 50 | 161 | 1.0 | 8.0 | 0.00 | 0.35 | 0.35 | 98 | 1009.3 |
| 20260510013033 | 50 | 358 | 2.0 | 10.0 | 0.00 | 0.35 | 0.35 | 99 | 1009.2 |
| 20260510012030 | 50 | 9 | 2.0 | 6.0 | 0.00 | 0.35 | 0.35 | 99 | 1009.2 |
| 20260510011026 | 50 | 298 | 1.0 | 4.0 | 0.00 | 0.35 | 0.35 | 99 | 1009.0 |
| 20260510010026 | 50 | 213 | 4.0 | 4.0 | 0.00 | 0.35 | 0.35 | 99 | 1009.0 |
| 20260510005025 | 50 | 16 | 2.0 | 6.0 | 0.00 | 0.35 | 0.35 | 99 | 1009.1 |
| 20260510004020 | 50 | 84 | 2.0 | 5.0 | 0.00 | 0.35 | 0.35 | 99 | 1008.9 |
| 20260510003018 | 50 | 207 | 2.0 | 5.0 | 0.00 | 0.35 | 0.35 | 98 | 1008.7 |
| 20260510002017 | 51 | 297 | 2.0 | 5.0 | 0.00 | 0.35 | 0.35 | 98 | 1008.6 |
| 20260510001012 | 51 | 39 | 0.0 | 4.0 | 0.00 | 0.35 | 0.35 | 98 | 1008.5 |
| 20260510000009 | 51 | 112 | 3.0 | 4.0 | 0.00 | 0.35 | 0.35 | 98 | 1008.3 |
| 20260509235009 | 51 | 142 | 3.0 | 4.0 | 0.00 | 0.35 | 0.35 | 98 | 1008.5 |
| 20260509234003 | 51 | 244 | 2.0 | 7.0 | 0.00 | 0.35 | 0.35 | 97 | 1008.6 |
| 20260509233002 | 51 | 259 | 2.0 | 6.0 | 0.00 | 0.35 | 0.35 | 97 | 1008.7 |
| 20260509232002 | 51 | 256 | 3.0 | 6.0 | 0.00 | 0.35 | 0.35 | 96 | 1008.3 |
| 20260509230956 | 52 | 206 | 3.0 | 7.0 | 0.00 | 0.35 | 0.35 | 95 | 1007.9 |
| 20260509225955 | 52 | 215 | 1.0 | 9.0 | 0.00 | 0.35 | 0.35 | 95 | 1008.0 |
| 20260509224953 | 52 | 155 | 2.0 | 5.0 | 0.00 | 0.35 | 0.35 | 96 | 1008.3 |
| 20260509223952 | 52 | 141 | 2.0 | 5.0 | 0.00 | 0.35 | 0.35 | 96 | 1008.1 |
| 20260509222952 | 52 | 157 | 2.0 | 4.0 | 0.00 | 0.35 | 0.35 | 95 | 1008.1 |
| 20260509221949 | 52 | 217 | 2.0 | 7.0 | 0.00 | 0.35 | 0.35 | 95 | 1008.6 |
| 20260509220946 | 52 | 211 | 2.0 | 6.0 | 0.00 | 0.35 | 0.35 | 95 | 1008.6 |
| 20260509215945 | 52 | 112 | 2.0 | 6.0 | 0.00 | 0.35 | 0.35 | 95 | 1008.6 |
| 20260509214944 | 52 | 218 | 4.0 | 6.0 | 0.00 | 0.35 | 0.35 | 96 | 1008.5 |
| 20260509213943 | 52 | 173 | 2.0 | 6.0 | 0.00 | 0.35 | 0.35 | 95 | 1008.4 |
| 20260509212942 | 53 | 183 | 2.0 | 6.0 | 0.00 | 0.35 | 0.35 | 95 | 1008.6 |
| 20260509211941 | 52 | 201 | 3.0 | 8.0 | 0.00 | 0.35 | 0.35 | 96 | 1008.8 |
| 20260509210939 | 52 | 225 | 3.0 | 5.0 | 0.00 | 0.35 | 0.35 | 97 | 1008.9 |
| 20260509205938 | 51 | 32 | 2.0 | 5.0 | 0.00 | 0.35 | 0.35 | 98 | 1008.8 |
| 20260509204935 | 51 | 258 | 2.0 | 6.0 | 0.00 | 0.35 | 0.35 | 98 | 1008.8 |
| 20260509203934 | 51 | 180 | 2.0 | 11.0 | 0.00 | 0.35 | 0.35 | 98 | 1008.8 |
| 20260509202932 | 51 | 163 | 2.0 | 11.0 | 0.00 | 0.35 | 0.35 | 99 | 1008.9 |
| 20260509201930 | 50 | 208 | 3.0 | 12.0 | 0.00 | 0.35 | 0.35 | 99 | 1008.8 |
| 20260509200928 | 50 | 214 | 6.0 | 15.0 | 0.00 | 0.35 | 0.35 | 99 | 1008.8 |
| 20260509195925 | 50 | 221 | 6.0 | 11.0 | 0.00 | 0.35 | 0.35 | 99 | 1009.0 |
| 20260509194920 | 50 | 200 | 8.0 | 11.0 | 0.00 | 0.35 | 0.35 | 99 | 1008.9 |
| 20260509193919 | 50 | 228 | 8.0 | 14.0 | 0.00 | 0.35 | 0.35 | 99 | 1009.1 |
| 20260509192915 | 50 | 111 | 2.0 | 13.0 | 0.05 | 0.35 | 0.35 | 99 | 1009.1 |
| 20260509191912 | 49 | 235 | 5.0 | 10.0 | 0.00 | 0.34 | 0.34 | 99 | 1009.3 |
| 20260509190910 | 49 | 224 | 3.0 | 11.0 | 0.07 | 0.34 | 0.34 | 99 | 1009.3 |
| 20260509185905 | 49 | 212 | 3.0 | 9.0 | 0.05 | 0.33 | 0.33 | 99 | 1009.5 |
| 20260509184904 | 49 | 201 | 6.0 | 11.0 | 0.00 | 0.32 | 0.32 | 99 | 1009.7 |
| 20260509183859 | 49 | 57 | 2.0 | 7.0 | 0.02 | 0.32 | 0.32 | 99 | 1009.5 |
| 20260509182855 | 49 | 138 | 1.0 | 5.0 | 0.02 | 0.31 | 0.31 | 99 | 1009.4 |
| 20260509181850 | 49 | 204 | 8.0 | 10.0 | 0.00 | 0.31 | 0.31 | 99 | 1009.5 |
| 20260509180850 | 49 | 150 | 5.0 | 16.0 | 0.02 | 0.31 | 0.31 | 99 | 1009.2 |